Ogden, KS

11:37 AM CST on February 08, 2016 (GMT -0600)
Manhattan Regional

Weather History for KMHK - July, 2013

Change the Weather History Date:

Monday, July 22, 2013

  Actual Average Record
Temperature  
Mean Temperature 81 °F 80 °F  
Max Temperature 91 °F 92 °F 107 °F (2001)
Min Temperature 71 °F 67 °F 60 °F (2006)
Degree Days  
Heating Degree Days 0 0  
Month to date heating degree days 0 0  
Since 1 June heating degree days 9 11  
Since 1 July heating degree days 0 0  
Cooling Degree Days 16 15  
Month to date cooling degree days 334 306  
Year to date cooling degree days 788 676  
Since 1 June cooling degree days 652 576  
Growing Degree Days 32 (Base 50)    
Moisture  
Dew Point 73 °F    
Average Humidity 76    
Maximum Humidity 100    
Minimum Humidity 52    
Precipitation  
Precipitation 0.08 in 0.11 in 0.64 in (1998)
Month to date precipitation 1.33 2.96  
Year to date precipitation 14.12 19.25  
Sea Level Pressure  
Sea Level Pressure 29.78 in    
Wind  
Wind Speed 4 mph (South)    
Max Wind Speed 28 mph    
Max Gust Speed 37 mph    
Visibility 10 miles    
Events Rain    
T = Trace of Precipitation, MM = Missing Value Source: NWS Daily Summary

Daily Weather History Graph

Daily Weather History Graph

Search for Another Location

Airport or City:

Trip Planner

Search our weather history database for the weather conditions in past years. The results will help you decide how hot, cold, wet, or windy it might be!

Date:

Astronomy

Jul. 22, 2013 Rise Set
Actual Time 6:18 AM CDT 8:47 PM CDT
Civil Twilight 5:48 AM CDT 9:17 PM CDT
Nautical Twilight 5:09 AM CDT 9:55 PM CDT
Astronomical Twilight 4:27 AM CDT 10:37 PM CDT
Moon 8:34 PM CDT (7/22) 6:15 AM CDT (7/22)
Length of Visible Light 15h 29m
Length of Day
14h 28m
Full, 100% of the Moon is Illuminated
Jul 22
Full
Jul 22
Full
Jul 29
Last Quarter
Aug 6
New
Aug 14
First Quarter

Hourly Weather History & Observations

Time (CDT) Temp. Heat Index Dew Point Humidity Pressure Visibility Wind Dir Wind Speed Gust Speed Precip Events Conditions
12:52 AM 75.9 °F - 73.0 °F 91% 29.81 in 10.0 mi SW 5.8 mph - N/A   Clear
1:52 AM 73.9 °F - 72.0 °F 93% 29.81 in 10.0 mi NE 4.6 mph - N/A   Clear
2:52 AM 75.0 °F - 73.0 °F 94% 29.79 in 10.0 mi SSW 4.6 mph - N/A   Clear
3:52 AM 75.0 °F - 73.0 °F 94% 29.78 in 10.0 mi Calm Calm - N/A   Clear
4:52 AM 73.0 °F - 72.0 °F 96% 29.77 in 10.0 mi Calm Calm - N/A   Clear
5:52 AM 73.0 °F - 72.0 °F 96% 29.77 in 10.0 mi Calm Calm - N/A   Clear
6:52 AM 73.9 °F - 72.0 °F 93% 29.78 in 10.0 mi Calm Calm - N/A   Clear
7:52 AM 77.0 °F - 73.0 °F 88% 29.78 in 10.0 mi Calm Calm - N/A   Clear
8:52 AM 80.1 °F 85.4 °F 75.9 °F 87% 29.77 in 10.0 mi Calm Calm - N/A   Clear
9:52 AM 82.9 °F 91.8 °F 77.0 °F 82% 29.80 in 10.0 mi NW 3.5 mph - N/A   Clear
10:16 AM 82.4 °F 90.9 °F 77.0 °F 84% 29.82 in 10.0 mi Variable 3.5 mph - N/A   Mostly Cloudy
10:34 AM 82.4 °F 90.9 °F 77.0 °F 84% 29.80 in 10.0 mi ENE 4.6 mph - N/A   Scattered Clouds
10:52 AM 82.9 °F 91.8 °F 77.0 °F 82% 29.77 in 10.0 mi East 5.8 mph - N/A   Clear
11:52 AM 88.0 °F 100.2 °F 77.0 °F 70% 29.78 in 10.0 mi SSE 9.2 mph - N/A   Clear
12:52 PM 75.0 °F - 66.0 °F 73% 29.78 in 4.0 mi SSW 19.6 mph 36.8 mph 0.03 in Rain Light Rain
1:27 PM 73.4 °F - 69.8 °F 88% 29.82 in 10.0 mi SE 8.1 mph - 0.05 in   Partly Cloudy
1:52 PM 77.0 °F - 70.0 °F 79% 29.79 in 10.0 mi Calm Calm - 0.05 in   Clear
2:52 PM 86.0 °F 91.5 °F 71.1 °F 61% 29.77 in 10.0 mi SSW 5.8 mph - N/A   Clear
3:52 PM 91.0 °F 99.3 °F 73.0 °F 55% 29.77 in 10.0 mi SW 9.2 mph - N/A   Clear
4:52 PM 91.0 °F 97.6 °F 71.1 °F 52% 29.76 in 10.0 mi SSW 11.5 mph - N/A   Clear
5:52 PM 91.0 °F 98.2 °F 72.0 °F 53% 29.75 in 10.0 mi SSW 15.0 mph 20.7 mph N/A   Clear
6:52 PM 89.1 °F 97.0 °F 73.0 °F 59% 29.75 in 10.0 mi SSW 9.2 mph - N/A   Clear
7:52 PM 87.1 °F 93.6 °F 72.0 °F 61% 29.75 in 10.0 mi SSW 6.9 mph - N/A   Clear
8:52 PM 79.0 °F - 73.9 °F 84% 29.75 in 10.0 mi Calm Calm - N/A   Clear
9:52 PM 77.0 °F - 73.9 °F 90% 29.77 in 10.0 mi Calm Calm - N/A   Clear
10:52 PM 73.0 °F - 73.0 °F 100% 29.79 in 10.0 mi Calm Calm - N/A   Clear
11:52 PM 71.1 °F - 71.1 °F 100% 29.81 in 10.0 mi Calm Calm - N/A   Clear